Home > Weather > Rotherham > Past weeks

Flag for United Kingdom Past Weather in Rotherham, England, United Kingdom — Yesterday and Last 2 Weeks

Now
68 °F

Mild.


Feels Like: 68 °F
Forecast: 57 / 72 °F
Wind: 5 mph from West

Location: Nottingham Weather Centre

Current Time: Jul 24, 2016 at 12:12:11 AM

Latest Report: Jul 23, 2016 at 11:00 PM


Visibility: 15 mi

Pressure: 30.10 "Hg

Humidity: 72%

Dew Point: 59 °F

Location of RotherhamLocation

Past Weather in Rotherham — Graph

°F

Rotherham Temperature Yesterday

Maximum temperature yesterday: 77 °F (at 6:00 PM)
Minimum temperature yesterday: 61 °F (at 6:00 AM)
Average temperature yesterday: 69 °F

High & Low Weather Summary for the Past Weeks

 TemperatureHumidityPressure
High87 °F (Jul 19, 5:00 PM)100% (Jul 18, 7:00 AM)30.31 "Hg (Jul 18, 7:00 AM)
Low47 °F (Jul 13, 6:00 AM)35% (Jul 19, 1:00 PM)29.54 "Hg (Jul 11, 4:00 AM)
Average65 °F76%30.01 "Hg
* Reported Jul 8 11:00 PM — Jul 23 11:00 PM, Rotherham, Weather by CustomWeather, © 2016

Note: Actual official high and low records may vary slightly from our data, if they occured in-between our weather recording intervals... More about our weather records

Advertising

Rotherham Weather History for the Previous 24 Hours

Scroll right to see more
 ConditionsComfort  
Time TempWeatherWind HumidityBarometerVisibility
11:00 PM
Sat, Jul 23
68 °FMild.5 mph72%30.10 "Hg15 mi
10:00 PM71 °FMild.3 mph66%30.09 "Hg11 mi
9:00 PM72 °FSmoke.1 mph60%30.08 "Hg4 mi
8:00 PM73 °FMild.2 mph58%30.08 "Hg12 mi
7:00 PM75 °FMild.3 mph55%30.08 "Hg19 mi
6:00 PM77 °FWarm.5 mph50%30.08 "Hg11 mi
5:00 PM76 °FMild.5 mph52%30.08 "Hg31 mi
4:00 PM76 °FMild.6 mph53%30.09 "Hg9 mi
3:00 PM75 °FMild.6 mph56%30.11 "Hg31 mi
2:00 PM75 °FMild.3 mph58%30.11 "Hg11 mi
11:00 AM71 °FMild.3 mph68%30.13 "Hg6 mi
10:00 AM68 °FMild.5 mph73%30.13 "Hg9 mi
9:00 AM68 °FSmoke.2 mph78%30.13 "Hg4 mi
8:00 AM65 °FMild.2 mph84%30.13 "Hg16 mi
7:00 AM62 °FCool.2 mph89%30.12 "Hg28 mi
6:00 AM61 °FSmoke.1 mph92%30.12 "Hg5 mi
5:00 AM62 °FCool.3 mph86%30.11 "Hg11 mi
4:00 AM63 °FMild.3 mph89%30.11 "Hg12 mi
3:00 AM63 °FSmoke.1 mph88%30.11 "Hg7 mi
2:00 AM63 °FMild.1 mph88%30.11 "Hg13 mi
1:00 AM64 °FMild.3 mph86%30.11 "Hg6 mi
12:00 AM66 °FMild.3 mph81%30.11 "Hg11 mi
Weather by CustomWeather, © 2016

See weather overviewHow to use our weather pages